Wind_Speed
23 20 19 19 20 20 21 22 21 21 21 24 27 27 26 24 24 24 22 22 23 24 24 25 25 24 24 24 24 24 24 24 25 25 26 26 26 27 27 28 27 27 27 27
25 23 22 22 22 22 22 22 23 24 25 26 28 28 27 26 25 26 25 25 25 25 26 26 27 26 26 26 26 26 27 27 27 27 28 28 28 28 28 28 28 28 28 28
25 23 24 25 23 22 23 23 23 25 26 27 29 29 28 28 28 27 27 26 27 28 27 27 27 27 27 27 27 28 28 28 29 29 29 30 30 29 29 29 29 29 30 30
25 24 26 25 23 24 26 26 25 25 28 29 29 30 31 30 27 27 28 28 27 28 28 28 28 28 29 29 29 29 29 30 30 30 30 30 30 30 30 30 30 31 31 32
25 25 26 24 25 24 26 28 28 28 29 30 30 30 31 32 31 29 28 28 29 28 28 29 29 29 29 29 29 30 30 30 30 30 30 30 30 30 31 31 32 33 33 33
28 27 27 27 25 26 28 31 31 30 30 31 31 31 33 33 31 31 30 29 29 29 29 29 29 29 30 30 30 31 30 30 31 31 31 30 30 31 32 32 33 34 34 35
29 30 30 29 27 28 29 32 33 33 33 32 32 32 32 32 32 31 30 30 30 30 30 30 30 30 30 30 30 31 31 30 31 31 31 31 31 32 33 33 34 34 34 33
30 31 32 31 30 32 33 32 33 34 34 35 34 33 33 34 32 32 31 31 31 32 31 31 31 31 31 31 31 31 31 31 31 31 32 33 33 33 34 35 35 34 32 32
30 31 32 33 34 34 34 34 33 33 34 35 34 34 34 34 33 32 32 32 32 33 32 31 31 32 31 31 32 32 31 31 32 32 33 34 34 34 34 34 33 33 33 33
32 33 34 35 35 36 35 36 36 35 34 34 35 35 34 34 34 33 34 33 33 33 33 33 32 32 32 32 33 33 33 33 34 34 34 34 34 34 33 33 33 33 33 33
34 34 35 36 36 36 37 37 37 36 36 36 36 36 35 35 35 34 34 34 34 33 33 33 33 33 33 33 34 34 34 34 34 34 34 34 33 33 33 33 34 34 33 33
34 35 36 37 36 37 37 37 36 36 36 36 36 36 36 36 36 35 34 34 35 34 34 34 34 33 34 34 34 35 35 35 35 34 34 34 34 34 33 34 34 34 33 33
35 35 35 35 34 35 36 36 36 36 36 36 36 36 37 36 35 35 35 34 34 34 34 34 34 34 34 34 34 35 35 35 35 35 35 35 35 35 34 34 34 34 34 34
33 33 33 33 33 33 34 35 35 35 35 36 36 36 36 36 35 34 34 34 34 34 34 34 34 34 34 34 34 34 34 34 35 35 36 36 35 35 34 35 35 35 35 35
31 32 32 32 33 33 32 31 32 33 34 35 35 36 35 35 34 34 34 34 34 34 33 33 33 33 33 33 33 33 33 33 34 34 35 35 35 35 34 34 34 34 34 34
30 31 31 32 32 31 31 31 31 32 32 32 33 33 34 34 34 34 34 34 34 33 33 32 32 32 33 33 33 33 33 34 34 34 35 35 34 34 33 33 33 33 33 34
30 30 30 30 30 29 29 29 30 30 31 31 31 31 32 32 33 33 33 33 33 33 33 34 34 33 33 33 33 34 34 35 35 35 34 34 33 33 32 33 32 33 33 34
28 29 29 29 29 29 29 29 30 30 30 30 30 30 31 31 32 32 32 32 32 32 32 32 33 33 32 32 33 34 34 34 34 34 34 33 32 32 32 32 32 33 33 34
27 28 28 29 29 28 28 28 29 28 28 29 29 29 29 29 30 30 30 30 30 30 30 30 31 32 32 31 32 33 33 33 33 32 32 31 31 31 31 30 31 31 31 31
27 27 28 28 28 26 26 26 26 26 27 27 27 28 28 28 28 27 27 27 28 28 28 28 29 29 30 30 31 31 31 31 31 31 31 31 30 30 30 30 30 30 29 29
25 25 25 25 25 24 24 24 25 25 25 26 26 26 26 26 26 26 26 26 26 27 27 26 27 27 28 28 28 28 28 28 28 28 29 28 28 28 28 28 28 28 28 28
23 23 23 23 23 22 22 23 23 24 24 25 25 25 25 25 24 24 24 24 24 25 25 26 26 26 26 27 27 27 27 26 27 27 27 26 26 26 26 26 26 27 27 27
21 21 22 21 21 21 22 22 23 23 23 23 22 22 22 22 22 23 22 22 23 23 24 25 25 25 26 26 26 26 26 25 25 24 24 25 25 25 25 26 26 26 26 26
19 20 19 19 20 20 21 21 21 21 21 21 20 20 20 21 20 21 21 22 22 22 23 23 23 24 24 25 24 24 24 24 24 24 24 25 25 25 25 25 25 25 25 25
19 18 19 19 19 19 20 20 20 20 20 19 19 19 20 19 19 19 20 20 21 22 22 22 22 23 23 23 23 23 23 23 22 23 23 24 24 24 24 24 24 24 24 25
18 18 18 18 18 19 19 20 19 19 19 19 19 19 19 19 19 19 20 20 21 21 21 21 21 22 22 21 22 22 22 21 22 22 22 23 23 23 23 23 24 24 24 24
16 17 17 17 17 17 18 18 18 18 18 18 18 18 18 19 19 19 20 20 20 20 20 20 20 20 21 21 21 21 21 21 21 21 21 22 22 22 22 23 24 24 24 24
Wind_Direction
245 244 247 254 258 258 255 252 254 259 267 274 279 281 283 284 284 288 287 289 292 293 292 291 291 292 292 292 292 293 295 295 296 296 297 298 299 300 300 299 299 300 300 300
248 245 247 253 255 254 254 256 257 260 264 269 275 280 281 281 283 285 285 286 288 291 291 290 291 291 290 290 290 291 292 293 293 293 294 295 296 297 297 297 298 298 298 298
252 250 250 253 255 258 257 255 258 262 265 267 271 276 277 278 277 280 282 283 285 289 290 289 290 290 288 287 288 289 290 291 292 292 292 293 294 294 296 296 296 298 298 297
253 251 252 252 254 258 259 259 261 261 266 268 273 278 279 278 280 282 283 283 285 288 289 289 289 289 290 287 286 287 288 289 290 291 291 292 293 294 295 296 296 297 297 296
253 252 256 259 258 258 258 258 259 259 263 268 272 274 275 276 279 282 282 284 285 286 288 289 289 289 290 289 288 288 289 289 289 290 291 293 294 294 295 295 295 295 296 295
253 252 254 256 255 254 259 262 260 260 264 268 272 275 277 280 280 281 283 285 286 286 287 288 289 289 289 288 287 286 287 287 289 290 292 293 294 294 295 296 295 296 294 295
256 254 257 259 257 258 260 262 264 266 267 268 271 274 277 279 281 282 284 285 285 287 287 288 288 289 289 287 286 286 286 288 290 292 293 293 294 295 296 296 295 296 295 296
259 256 255 256 260 259 259 260 262 266 267 268 270 273 275 278 281 284 286 285 286 286 286 287 286 288 289 288 287 287 288 289 291 292 293 294 295 296 296 297 296 296 296 297
257 256 255 255 258 261 262 263 264 265 266 269 270 272 274 277 281 282 284 284 285 285 285 285 285 286 288 287 287 287 288 289 290 292 293 294 295 295 296 297 296 297 297 298
258 259 258 257 257 259 261 263 264 266 267 268 270 272 274 277 280 281 282 284 284 286 285 284 284 284 285 286 286 286 287 289 290 291 292 293 293 294 295 296 297 298 298 298
260 260 261 261 260 260 261 263 265 265 266 267 268 272 275 277 278 280 282 283 283 284 285 285 285 285 285 285 285 286 287 288 289 290 291 291 292 293 294 295 296 297 298 298
264 264 264 264 264 264 265 264 265 265 266 268 269 272 274 276 278 279 281 281 282 282 283 284 285 284 285 285 286 286 287 287 288 288 288 290 292 292 293 293 294 295 296 297
265 265 266 266 268 267 269 268 267 266 266 268 269 271 274 276 277 278 280 280 281 282 282 282 283 283 284 285 286 286 287 287 288 288 288 289 291 291 292 292 292 294 295 296
266 267 266 268 270 269 268 269 268 266 266 267 269 270 272 275 277 278 279 279 281 282 282 282 282 282 283 283 285 286 287 288 289 289 289 290 291 291 293 293 293 293 294 295
265 265 267 268 269 269 270 271 270 268 268 268 269 270 272 274 275 277 278 279 280 281 282 282 282 282 283 284 284 285 287 288 288 289 290 291 291 292 293 294 294 294 294 295
265 265 266 268 269 271 272 273 273 272 272 272 271 271 272 273 275 277 278 279 279 280 280 281 283 283 284 284 284 285 286 287 288 290 291 291 293 293 295 295 295 295 296 296
265 265 267 270 271 272 273 275 275 275 275 275 273 273 273 274 275 277 278 279 279 280 280 282 283 284 284 284 283 284 287 288 288 289 290 291 292 293 294 295 296 297 298 299
267 267 269 272 273 272 273 274 275 275 276 275 274 274 274 275 276 277 278 278 280 281 281 281 282 283 284 283 284 286 287 288 288 290 291 292 292 293 294 296 297 298 298 299
267 268 270 271 272 272 273 274 275 275 276 276 276 276 276 277 279 279 278 279 279 281 281 282 283 283 284 284 285 288 288 288 288 290 290 292 295 295 294 295 297 298 300 300
267 268 270 271 272 274 275 274 275 276 277 279 279 279 279 280 281 280 280 281 281 282 283 283 283 284 286 287 288 289 289 289 289 290 291 292 294 295 296 297 299 301 301 302
268 268 269 271 271 272 275 276 277 278 280 281 281 280 281 281 281 281 282 282 283 283 283 284 284 286 287 288 288 289 290 290 291 291 293 294 294 297 298 299 300 302 303 303
269 269 270 271 272 272 273 275 277 278 280 281 281 279 280 280 280 280 282 284 284 284 285 286 286 287 289 289 290 290 292 292 292 293 294 295 296 298 300 301 301 302 303 303
269 270 272 274 275 274 274 275 277 279 282 285 284 283 282 281 280 281 282 283 284 285 286 286 287 288 289 290 292 292 291 292 293 294 295 296 297 298 301 302 303 303 303 303
269 272 273 274 275 275 274 275 278 280 283 286 286 285 284 282 280 280 282 283 284 285 287 288 290 290 291 291 292 293 292 293 293 292 294 297 298 299 301 301 302 303 305 305
269 271 273 274 275 275 275 277 279 280 282 284 285 286 284 283 284 285 286 287 288 289 289 290 291 292 293 293 294 295 294 293 293 295 297 298 299 300 301 302 303 304 306 306
267 270 273 276 277 277 278 278 278 279 281 283 285 286 286 286 287 289 290 291 292 292 291 292 292 294 294 294 295 295 295 295 298 300 302 303 303 302 303 304 304 304 305 307
270 271 273 275 278 280 280 280 279 280 282 284 285 286 287 288 289 291 293 294 294 294 295 296 296 297 297 296 296 296 297 298 299 300 302 303 302 302 303 304 306 307 307 308
Height
5887 5889 5892 5893 5894 5895 5896 5896 5897 5897 5895 5892 5890 5888 5886 5886 5885 5884 5882 5881 5880 5879 5877 5876 5876 5875 5874 5873 5871 5869 5868 5866 5865 5863 5861 5859 5857 5855 5852 5850 5848 5846 5843 5841
5881 5883 5885 5886 5888 5888 5889 5890 5891 5890 5889 5888 5886 5883 5881 5880 5878 5877 5877 5876 5875 5874 5872 5871 5870 5869 5868 5867 5865 5863 5862 5860 5858 5856 5854 5853 5850 5848 5846 5843 5841 5839 5837 5834
5874 5877 5877 5879 5881 5881 5881 5882 5884 5883 5883 5880 5878 5876 5875 5874 5872 5871 5871 5870 5869 5868 5866 5865 5864 5863 5861 5860 5858 5857 5855 5853 5851 5849 5847 5845 5843 5841 5838 5836 5834 5832 5830 5827
5868 5870 5870 5874 5875 5875 5875 5875 5876 5876 5874 5872 5872 5870 5868 5866 5864 5864 5864 5863 5863 5861 5859 5859 5857 5855 5854 5852 5851 5849 5847 5846 5844 5842 5840 5838 5835 5833 5831 5829 5826 5824 5822 5819
5861 5862 5863 5866 5867 5868 5868 5867 5868 5867 5866 5864 5864 5863 5861 5858 5856 5857 5857 5855 5855 5854 5852 5851 5850 5848 5847 5845 5843 5842 5840 5838 5836 5834 5832 5830 5828 5825 5823 5821 5819 5816 5814 5811
5853 5855 5856 5858 5858 5858 5860 5859 5859 5857 5857 5856 5856 5856 5853 5851 5850 5850 5849 5848 5847 5846 5845 5844 5842 5841 5839 5837 5836 5833 5831 5829 5828 5826 5824 5822 5820 5817 5815 5813 5810 5807 5805 5802
5846 5846 5848 5850 5850 5851 5853 5851 5849 5849 5849 5848 5848 5848 5846 5843 5843 5842 5841 5841 5839 5838 5837 5836 5834 5833 5831 5830 5828 5826 5823 5821 5820 5818 5816 5814 5811 5809 5806 5804 5801 5799 5796 5792
5838 5838 5842 5841 5841 5842 5841 5840 5841 5841 5840 5840 5839 5838 5837 5836 5835 5834 5834 5833 5831 5830 5829 5828 5826 5825 5823 5822 5820 5818 5816 5814 5812 5810 5808 5805 5803 5800 5797 5795 5792 5790 5786 5784
5829 5830 5830 5831 5831 5831 5832 5832 5832 5832 5831 5831 5831 5830 5829 5828 5827 5826 5825 5824 5823 5821 5820 5819 5818 5816 5815 5813 5811 5809 5808 5806 5804 5802 5799 5797 5794 5792 5789 5786 5783 5780 5778 5775
5819 5820 5820 5821 5821 5822 5822 5822 5823 5822 5823 5823 5822 5821 5820 5820 5819 5817 5816 5815 5814 5813 5811 5810 5809 5808 5806 5804 5803 5801 5799 5797 5795 5793 5790 5788 5785 5783 5780 5777 5774 5771 5768 5765
5810 5810 5810 5811 5812 5812 5811 5812 5812 5813 5813 5813 5812 5811 5811 5810 5809 5808 5807 5806 5805 5803 5802 5801 5799 5798 5797 5795 5793 5792 5790 5788 5785 5783 5781 5778 5776 5773 5771 5768 5765 5763 5759 5756
5800 5800 5801 5801 5801 5801 5802 5802 5803 5803 5803 5803 5803 5802 5802 5801 5800 5799 5798 5797 5795 5794 5793 5791 5790 5788 5787 5785 5784 5782 5780 5778 5776 5773 5771 5769 5767 5764 5761 5759 5756 5753 5750 5748
5790 5791 5791 5791 5792 5792 5791 5792 5792 5792 5793 5793 5793 5792 5792 5791 5790 5789 5788 5787 5786 5784 5783 5781 5780 5779 5777 5776 5774 5772 5770 5768 5766 5764 5761 5759 5757 5754 5752 5750 5747 5744 5741 5738
5782 5783 5783 5783 5783 5782 5782 5782 5782 5782 5782 5782 5782 5782 5781 5781 5780 5779 5778 5777 5776 5774 5773 5771 5770 5769 5767 5766 5764 5762 5760 5758 5756 5754 5752 5749 5747 5744 5742 5739 5737 5734 5732 5729
5774 5774 5774 5774 5774 5773 5773 5772 5772 5772 5772 5772 5772 5771 5771 5771 5770 5769 5768 5767 5766 5765 5763 5761 5760 5759 5757 5756 5754 5752 5750 5748 5745 5743 5741 5739 5737 5735 5732 5729 5727 5724 5722 5719
5765 5766 5766 5766 5766 5765 5765 5764 5764 5763 5762 5762 5762 5761 5761 5761 5760 5759 5758 5756 5756 5755 5754 5752 5751 5749 5747 5746 5745 5743 5741 5739 5736 5734 5732 5730 5727 5725 5722 5719 5717 5714 5712 5709
5756 5757 5757 5757 5757 5757 5756 5756 5755 5754 5754 5753 5752 5752 5751 5750 5749 5749 5747 5746 5745 5745 5744 5743 5741 5740 5738 5737 5735 5733 5731 5730 5728 5725 5723 5720 5718 5715 5713 5710 5708 5705 5703 5700
5748 5749 5749 5749 5748 5748 5747 5747 5746 5746 5745 5744 5743 5742 5741 5740 5739 5739 5738 5737 5736 5735 5734 5733 5732 5731 5729 5727 5726 5724 5722 5720 5718 5716 5714 5711 5709 5707 5704 5702 5699 5697 5694 5691
5740 5741 5741 5741 5741 5740 5739 5738 5738 5737 5736 5735 5734 5733 5732 5731 5730 5729 5728 5727 5727 5726 5725 5724 5723 5721 5720 5718 5717 5715 5713 5711 5709 5707 5705 5702 5700 5698 5695 5693 5690 5688 5685 5683
5733 5733 5733 5733 5733 5732 5731 5730 5730 5729 5728 5727 5725 5724 5723 5722 5721 5720 5719 5719 5718 5717 5716 5715 5714 5713 5711 5710 5708 5706 5704 5702 5700 5698 5696 5694 5692 5689 5687 5685 5682 5680 5677 5674
5725 5725 5725 5725 5725 5724 5724 5723 5722 5722 5720 5719 5718 5716 5716 5715 5714 5713 5712 5711 5710 5709 5708 5707 5706 5705 5703 5701 5699 5697 5695 5693 5692 5690 5688 5686 5684 5681 5679 5677 5675 5672 5669 5667
5718 5718 5718 5718 5717 5717 5717 5716 5715 5715 5713 5712 5710 5709 5708 5707 5707 5706 5705 5704 5703 5702 5701 5700 5698 5697 5695 5693 5692 5690 5688 5686 5684 5682 5680 5678 5676 5674 5672 5670 5667 5665 5662 5659
5712 5712 5712 5711 5711 5710 5710 5709 5709 5708 5707 5705 5703 5702 5701 5701 5700 5699 5698 5697 5696 5695 5694 5692 5691 5689 5688 5686 5684 5682 5680 5678 5677 5675 5673 5671 5670 5667 5665 5663 5660 5658 5655 5653
5706 5706 5706 5705 5705 5704 5704 5703 5702 5701 5700 5699 5698 5697 5696 5695 5694 5693 5692 5691 5690 5689 5687 5686 5684 5683 5681 5679 5677 5676 5674 5672 5670 5669 5667 5665 5663 5661 5658 5656 5654 5651 5649 5646
5700 5700 5700 5700 5699 5698 5698 5697 5697 5696 5695 5694 5693 5692 5690 5689 5689 5688 5687 5685 5684 5683 5682 5680 5678 5677 5675 5673 5671 5669 5668 5666 5664 5662 5661 5659 5657 5654 5652 5650 5647 5645 5642 5639
5695 5695 5695 5695 5694 5693 5692 5692 5691 5691 5690 5689 5689 5687 5686 5685 5684 5683 5681 5680 5679 5677 5675 5674 5672 5670 5669 5667 5665 5663 5661 5659 5658 5656 5654 5652 5650 5648 5646 5643 5641 5638 5636 5633
5690 5690 5690 5689 5689 5688 5687 5687 5686 5686 5685 5685 5684 5682 5681 5680 5679 5678 5676 5675 5673 5671 5670 5668 5666 5665 5663 5661 5659 5657 5655 5653 5652 5650 5648 5646 5644 5642 5639 5637 5634 5632 5629 5627